Погода в Большой Уторгош

Россия / Новгородская область     58°16′12″N   30°06′57″E
темп.,
°C
ветер,
м/с
пор.,
м/с
влажн.,
%
обл.,
%
осадки,
мм/ч
давл.,
гПа
погр.,
м
18 мая, вт
вт1800:00+14св1196100 5.7 100521
03:00+13в1198100 7.6 100419
06:00+15всв1499100 1.9 1003223
09:00+18вюв3895100 3.2 1003531
12:00+21юв478198 0.4 1003910
15:00+22ююв388552 3.7 1003945
18:00+22ююв2584100 1.1 1003418
21:00+17всв1196100 5.7 100216
19 мая, ср
ср1900:00+15св1197100 1.7 100211
03:00+15в2698100 1.7 1001147
06:00+15вюв414955 0.4 1000565
09:00+18ююв5118425 0.4 10001053
12:00+16ююв5129196 1.8 1000822
15:00+19ю5108828 3.8 10011121
18:00+17ю4991100 2.1 1002778
21:00+15ю2697100 3.6 1003177
20 мая, чт
чт2000:00+13зюз269899 0.1 1003310
03:00+11юз279694 0.1 1005479
06:00+10зюз2595100 0.0 1006335
09:00+11зсз3590100 0.1 1006552
12:00+11сз3791100 0.3 1005711
15:00+10сз4896100 6.0 1005599
18:00+9сз51096100 6.8 1005699
21:00+9зсз31095100 7.9 1007493
21 мая, пт
пт2100:00+7з2496100 0.0 100875
03:00+7зюз299819 0.0 1009243
06:00+6зюз29960 0.0 1011256
09:00+11юз47749 0.0 1012861
12:00+15юз58402 0.0 10121814
15:00+16зюз574695 0.0 10122180
18:00+13юз475967 0.1 10131047
21:00+9юз26745 0.3 101499
22 мая, сб
сб2200:00+6зюз27865 0.0 1015146
03:00+5ююз269138 0.0 1015115
06:00+7ю288442 0.0 1015209
09:00+12ю4962100 0.0 1016533
12:00+16ю5950100 0.0 10141368
15:00+18ю51047100 0.0 10132158
18:00+15ю2468100 0.0 101293
21:00+14ю3972100 0.0 1012312